Total_Precipitation_Accumulation
0.35 0.04 0.04 0.09 0.51 0.56 1.85 1.70 3.42 1.87 2.24 2.28 2.31 2.00 2.92 1.04 1.19 1.81 1.21 0.82 1.07 0.59 1.04 0.48 0.16 0.38 1.34 0.65 0.32 0.40 0.23 1.28 0.25 2.16 1.37 0.88 0.64 0.65 0.60 0.73 0.71 0.68 0.48 0.46 0.72 0.94 1.24 0.67 1.03 1.07 1.16 0.82 0.77 0.94 0.70 0.66 0.81 0.70 0.75 0.51 0.32 0.28 0.29 0.12 0.08 0.09 0.07 0.10 0.11 0.06 0.10 0.13 0.19 0.21 0.20 0.13 0.20 0.17 0.35 0.27 0.30 0.34 0.41 0.36 0.59 0.55 0.46 0.49 0.60 0.49 0.38 0.31 0.35 0.36 0.34 0.18 0.18
0.08 0.02 0.07 0.26 0.70 2.35 2.27 0.94 3.02 2.49 1.83 2.61 2.14 1.66 1.83 1.52 1.93 1.46 1.14 2.58 0.75 0.53 0.23 0.34 0.21 1.03 0.73 0.07 0.10 0.12 0.14 0.20 0.10 0.19 0.31 0.45 0.61 0.66 0.42 0.50 0.34 0.47 0.35 0.34 0.32 0.72 0.65 0.84 0.81 0.89 0.75 0.62 0.54 0.55 0.63 0.85 0.57 0.66 0.44 0.27 0.28 0.23 0.13 0.08 0.08 0.12 0.09 0.13 0.19 0.20 0.14 0.17 0.24 0.24 0.15 0.18 0.24 0.33 0.48 0.34 0.24 0.26 0.36 0.32 0.42 0.43 0.46 0.43 0.50 0.42 0.34 0.32 0.50 0.55 0.37 0.30 0.27
0.05 0.09 0.20 0.55 0.46 1.33 1.96 1.78 3.00 2.91 2.71 2.45 1.70 2.09 1.55 1.49 1.96 1.75 1.54 0.89 0.42 0.16 0.24 0.23 0.22 0.75 0.43 0.17 0.19 0.29 0.38 0.23 0.08 0.10 0.53 0.56 0.75 0.97 0.44 0.26 0.35 0.29 0.34 0.33 0.34 0.48 0.52 0.63 0.40 0.77 0.71 0.70 0.40 0.47 0.57 0.48 0.35 0.36 0.47 0.22 0.32 0.15 0.14 0.13 0.13 0.16 0.13 0.20 0.21 0.12 0.13 0.18 0.25 0.28 0.23 0.26 0.28 0.34 0.51 0.50 0.70 0.48 0.33 0.42 0.45 0.39 0.30 0.38 0.34 0.35 0.25 0.40 0.58 0.48 0.30 0.27 0.25
0.13 0.20 0.61 0.57 2.99 1.31 2.16 2.89 2.07 3.57 3.43 1.51 1.87 1.36 2.04 1.58 1.42 1.40 0.72 0.54 0.44 0.12 0.18 0.22 0.64 0.15 0.46 0.11 0.15 0.07 0.13 0.36 0.17 0.07 0.74 0.68 0.35 0.43 0.36 0.38 0.22 0.21 0.28 0.34 0.43 0.41 0.47 0.44 0.27 0.35 0.52 0.44 0.32 0.40 0.33 0.36 0.29 0.21 0.26 0.20 0.18 0.21 0.10 0.13 0.08 0.17 0.19 0.17 0.09 0.14 0.22 0.24 0.14 0.31 0.33 0.41 0.38 0.45 0.54 0.31 0.57 0.50 0.47 0.44 0.50 0.35 0.34 0.48 0.47 0.45 0.39 0.49 0.49 0.41 0.33 0.26 0.27
0.21 0.55 0.38 0.91 2.64 3.65 2.59 2.87 2.63 3.20 2.60 1.52 2.41 1.50 0.99 0.94 1.01 0.53 0.61 0.58 0.21 0.69 0.12 0.33 0.23 0.39 0.67 0.28 0.19 0.53 0.23 0.14 0.15 0.08 0.19 0.27 0.12 0.21 0.22 0.24 0.29 0.25 0.26 0.28 0.30 0.34 0.33 0.25 0.26 0.26 0.34 0.30 0.21 0.24 0.22 0.21 0.16 0.16 0.24 0.18 0.17 0.12 0.15 0.19 0.18 0.22 0.17 0.21 0.19 0.24 0.18 0.26 0.24 0.32 0.34 0.38 0.43 0.35 0.53 0.68 0.65 0.50 0.48 0.47 0.48 0.43 0.31 0.39 0.44 0.41 0.37 0.60 0.60 0.42 0.36 0.24 0.31
0.22 0.31 0.51 1.47 4.80 3.50 2.12 2.23 2.98 2.36 2.43 1.07 1.48 1.62 1.43 1.26 1.32 0.57 0.37 0.45 0.71 0.55 0.36 0.52 0.19 0.24 0.16 0.04 0.06 0.09 0.07 0.38 0.18 0.12 0.21 0.26 0.18 0.23 0.21 0.21 0.27 0.27 0.28 0.47 0.37 0.29 0.49 0.16 0.30 0.27 0.19 0.25 0.15 0.15 0.15 0.16 0.12 0.19 0.17 0.13 0.10 0.15 0.21 0.35 0.22 0.30 0.28 0.34 0.15 0.26 0.28 0.32 0.16 0.34 0.24 0.39 0.43 0.34 0.55 0.55 0.51 0.47 0.32 0.38 0.51 0.33 0.36 0.35 0.55 0.45 0.37 0.52 0.41 0.41 0.33 0.29 0.29
0.41 0.71 1.42 1.84 1.68 2.00 3.11 2.53 1.96 1.81 1.74 1.34 1.02 1.56 1.55 0.87 0.62 0.49 0.41 0.48 0.71 0.53 0.32 0.46 0.03 0.05 0.29 0.11 0.06 0.06 0.05 0.04 0.15 0.11 0.04 0.13 0.17 0.14 0.14 0.24 0.27 0.32 0.34 0.35 0.32 0.26 0.35 0.13 0.21 0.22 0.25 0.19 0.17 0.16 0.21 0.16 0.11 0.10 0.12 0.14 0.11 0.20 0.22 0.31 0.29 0.34 0.30 0.20 0.30 0.33 0.34 0.24 0.31 0.38 0.37 0.36 0.22 0.53 0.44 0.39 0.30 0.41 0.41 0.45 0.53 0.43 0.29 0.28 0.29 0.39 0.33 0.42 0.47 0.27 0.30 0.38 0.39
0.10 2.31 2.44 2.18 2.92 2.34 2.17 1.86 1.90 1.55 1.46 2.13 2.18 1.36 1.69 1.01 0.47 0.83 0.23 0.32 0.46 0.50 0.22 0.09 0.16 0.18 0.21 0.03 0.42 0.20 0.06 0.03 0.04 0.01 0.04 0.06 0.10 0.18 0.19 0.20 0.34 0.30 0.33 0.25 0.28 0.32 0.27 0.17 0.18 0.23 0.22 0.16 0.15 0.16 0.25 0.13 0.11 0.15 0.12 0.13 0.34 0.36 0.42 0.39 0.29 0.28 0.40 0.34 0.32 0.32 0.32 0.29 0.34 0.34 0.42 0.39 0.34 0.39 0.31 0.36 0.41 0.38 0.24 0.25 0.40 0.34 0.32 0.27 0.14 0.36 0.38 0.49 0.32 0.34 0.43 0.54 0.24
0.32 1.27 2.42 1.66 2.75 2.43 2.18 2.65 2.20 2.09 2.02 1.66 2.25 1.31 0.97 1.18 0.46 0.67 0.48 0.22 0.25 0.15 0.08 0.12 0.09 0.27 0.46 0.19 0.33 0.24 0.13 0.06 0.01 0.02 0.02 0.06 0.14 0.17 0.14 0.18 0.21 0.32 0.26 0.21 0.23 0.29 0.42 0.10 0.16 0.13 0.15 0.13 0.15 0.20 0.22 0.13 0.12 0.16 0.19 0.23 0.30 0.20 0.35 0.37 0.33 0.27 0.47 0.39 0.46 0.43 0.46 0.42 0.30 0.29 0.43 0.32 0.33 0.32 0.40 0.45 0.43 0.39 0.23 0.28 0.28 0.46 0.23 0.22 0.13 0.12 0.23 0.36 0.24 0.30 0.29 0.35 0.18
1.52 0.93 3.87 2.31 2.28 2.83 2.17 1.35 2.17 2.20 2.17 1.71 2.08 1.50 1.46 0.84 0.57 1.34 0.46 0.14 0.47 0.11 0.17 0.09 0.06 0.45 0.16 0.29 0.21 0.20 0.16 0.03 0.01 0.03 0.06 0.05 0.06 0.09 0.10 0.15 0.13 0.13 0.20 0.23 0.19 0.30 0.25 0.29 0.14 0.12 0.18 0.15 0.21 0.19 0.20 0.27 0.19 0.17 0.35 0.27 0.27 0.38 0.36 0.34 0.35 0.44 0.39 0.37 0.47 0.33 0.40 0.45 0.30 0.31 0.28 0.24 0.29 0.33 0.52 0.43 0.40 0.27 0.22 0.17 0.19 0.23 0.21 0.15 0.17 0.08 0.17 0.18 0.21 0.35 0.32 0.19 0.22
2.07 1.33 1.33 3.12 2.43 2.35 2.11 1.29 1.09 2.05 2.07 1.69 1.44 1.20 0.79 1.02 0.91 0.64 0.61 0.36 0.04 0.12 0.09 0.07 0.18 0.12 0.09 0.28 0.32 0.16 0.04 0.02 0.01 0.06 0.07 0.04 0.05 0.10 0.12 0.19 0.12 0.10 0.17 0.27 0.14 0.29 0.36 0.34 0.21 0.15 0.15 0.18 0.21 0.25 0.40 0.51 0.23 0.24 0.27 0.18 0.28 0.30 0.34 0.38 0.38 0.33 0.42 0.33 0.42 0.46 0.49 0.48 0.31 0.32 0.32 0.27 0.25 0.26 0.36 0.47 0.37 0.35 0.43 0.26 0.15 0.17 0.10 0.10 0.12 0.17 0.21 0.29 0.34 0.39 0.33 0.22 0.23
2.07 1.55 2.52 2.53 2.29 2.75 1.82 2.13 1.42 1.75 1.68 1.68 1.76 1.90 0.95 0.89 0.58 0.64 0.69 0.16 0.11 0.03 0.08 0.08 0.22 0.07 0.12 0.16 0.38 0.36 0.08 0.04 0.05 0.02 0.06 0.04 0.07 0.07 0.12 0.10 0.11 0.16 0.13 0.23 0.18 0.19 0.25 0.31 0.48 0.41 0.11 0.12 0.24 0.34 0.37 0.33 0.28 0.36 0.25 0.26 0.31 0.29 0.50 0.45 0.40 0.34 0.27 0.31 0.47 0.38 0.64 0.52 0.39 0.33 0.35 0.40 0.27 0.26 0.46 0.36 0.32 0.33 0.63 0.28 0.18 0.13 0.14 0.20 0.23 0.16 0.21 0.39 0.30 0.21 0.25 0.21 0.29
1.60 2.02 2.94 2.23 2.09 2.62 1.71 1.37 2.70 1.67 1.45 1.94 1.35 1.27 1.31 1.07 1.43 0.49 0.81 0.24 0.09 0.04 0.05 0.23 0.02 0.03 0.07 0.14 0.31 0.18 0.14 0.07 0.03 0.01 0.03 0.04 0.04 0.08 0.07 0.09 0.10 0.08 0.12 0.10 0.20 0.24 0.25 0.20 0.33 0.42 0.30 0.16 0.42 0.43 0.34 0.38 0.45 0.46 0.24 0.23 0.29 0.33 0.31 0.40 0.26 0.32 0.23 0.30 0.42 0.60 0.46 0.63 0.49 0.37 0.42 0.34 0.48 0.40 0.42 0.37 0.53 0.55 0.45 0.48 0.22 0.17 0.17 0.20 0.25 0.26 0.20 0.23 0.24 0.23 0.20 0.20 0.23
1.29 1.91 2.58 2.68 1.56 2.19 2.25 1.51 1.60 1.45 2.39 1.04 2.36 1.45 1.35 1.02 0.68 0.41 0.44 0.23 0.09 0.17 0.04 0.09 0.03 0.04 0.24 0.05 0.76 0.29 0.11 0.05 0.02 0.03 0.03 0.05 0.04 0.06 0.05 0.07 0.09 0.10 0.12 0.15 0.17 0.16 0.27 0.24 0.31 0.33 0.45 0.55 0.63 0.54 0.47 0.44 0.32 0.44 0.22 0.16 0.30 0.45 0.46 0.38 0.27 0.25 0.21 0.34 0.55 0.41 0.52 0.39 0.54 0.70 0.57 0.62 0.68 0.33 0.36 0.39 0.50 0.57 0.41 0.55 0.31 0.25 0.22 0.18 0.21 0.26 0.15 0.14 0.29 0.30 0.32 0.27 0.30
1.09 1.25 2.21 1.86 1.84 1.36 1.29 1.77 1.47 1.09 2.07 1.14 1.67 1.69 0.98 0.86 0.97 0.74 0.65 0.43 0.39 0.12 0.03 0.02 0.04 0.06 0.19 0.04 0.18 0.09 0.04 0.05 0.02 0.02 0.04 0.05 0.05 0.05 0.05 0.09 0.10 0.11 0.12 0.19 0.16 0.26 0.27 0.17 0.34 0.36 0.35 0.46 0.45 0.47 0.46 0.51 0.54 0.50 0.47 0.34 0.39 0.35 0.35 0.37 0.27 0.18 0.18 0.24 0.39 0.63 0.45 0.46 0.69 0.72 0.62 0.70 0.61 0.49 0.23 0.26 0.34 0.31 0.46 0.44 0.30 0.26 0.16 0.23 0.24 0.34 0.15 0.17 0.25 0.26 0.29 0.29 0.22
0.97 1.19 1.96 1.55 2.14 1.24 0.81 1.35 0.57 1.20 1.08 1.27 1.18 1.19 1.09 0.64 0.65 1.02 0.61 0.95 0.59 0.02 0.01 0.13 0.01 0.14 0.07 0.03 0.01 0.01 0.00 0.02 0.02 0.03 0.05 0.08 0.08 0.08 0.09 0.11 0.18 0.22 0.16 0.20 0.22 0.22 0.21 0.15 0.26 0.29 0.41 0.34 0.56 0.49 0.61 0.66 0.36 0.30 0.19 0.28 0.31 0.44 0.18 0.22 0.20 0.19 0.20 0.19 0.29 0.47 0.42 0.75 0.86 0.76 0.73 0.90 0.90 0.58 0.44 0.55 0.48 0.35 0.41 0.36 0.34 0.30 0.30 0.30 0.32 0.29 0.22 0.21 0.25 0.22 0.16 0.21 0.17
0.68 0.96 1.97 1.69 2.23 1.49 0.60 0.86 0.92 1.92 0.78 0.97 1.08 0.95 0.52 0.65 0.64 0.85 0.64 0.55 0.25 0.12 0.05 0.00 0.10 0.01 0.00 0.01 0.01 0.00 0.01 0.01 0.01 0.02 0.05 0.14 0.13 0.24 0.28 0.25 0.26 0.31 0.33 0.31 0.24 0.22 0.26 0.18 0.18 0.25 0.25 0.29 0.26 0.32 0.44 0.59 0.35 0.39 0.30 0.27 0.44 0.21 0.21 0.19 0.11 0.16 0.22 0.19 0.32 0.50 0.46 0.42 0.54 0.62 0.45 0.60 0.44 0.50 0.40 0.31 0.31 0.23 0.27 0.23 0.30 0.20 0.29 0.35 0.31 0.56 0.35 0.41 0.46 0.32 0.27 0.18 0.17
0.57 1.01 1.22 1.76 1.98 1.88 0.90 1.21 0.94 0.33 1.25 0.53 0.99 1.13 0.93 0.58 0.38 0.56 0.31 0.56 0.63 0.38 0.08 0.04 0.01 0.00 0.00 0.00 0.00 0.00 0.01 0.01 0.04 0.04 0.07 0.12 0.12 0.18 0.24 0.25 0.22 0.29 0.25 0.35 0.33 0.22 0.19 0.20 0.22 0.21 0.31 0.27 0.27 0.37 0.48 0.38 0.44 0.45 0.42 0.34 0.47 0.35 0.29 0.35 0.26 0.30 0.48 0.39 0.36 0.39 0.43 0.65 0.76 0.57 0.64 0.55 0.73 0.41 0.40 0.46 0.33 0.14 0.22 0.26 0.31 0.31 0.25 0.34 0.56 0.47 0.42 0.29 0.34 0.32 0.19 0.26 0.38
1.46 0.52 1.25 2.61 1.60 1.05 0.79 0.93 0.75 1.08 0.98 0.74 1.20 0.76 0.90 0.43 1.08 0.43 0.53 0.27 0.59 0.38 0.24 0.02 0.01 0.00 0.00 0.00 0.00 0.01 0.01 0.02 0.02 0.02 0.04 0.03 0.05 0.05 0.08 0.13 0.12 0.18 0.22 0.24 0.35 0.22 0.16 0.16 0.13 0.17 0.16 0.28 0.28 0.31 0.35 0.28 0.35 0.30 0.35 0.33 0.38 0.47 0.40 0.30 0.26 0.42 0.42 0.56 0.54 0.63 0.92 0.81 0.42 0.54 0.73 0.63 0.38 0.22 0.22 0.21 0.30 0.21 0.14 0.16 0.21 0.32 0.34 0.47 0.65 0.50 0.73 0.35 0.23 0.22 0.30 0.22 0.44
0.55 1.29 1.43 1.64 1.52 1.13 0.63 0.48 0.76 1.14 0.30 0.72 0.71 0.44 0.92 0.76 0.35 0.12 0.83 0.38 0.24 0.26 0.04 0.04 0.01 0.01 0.00 0.01 0.00 0.01 0.01 0.01 0.01 0.01 0.01 0.02 0.02 0.04 0.07 0.07 0.09 0.06 0.10 0.12 0.16 0.20 0.17 0.14 0.11 0.09 0.14 0.19 0.16 0.29 0.27 0.42 0.34 0.68 0.28 0.23 0.43 0.24 0.24 0.29 0.42 0.58 0.49 0.70 0.72 0.71 0.53 0.79 0.51 0.52 0.30 0.37 0.22 0.17 0.24 0.14 0.26 0.24 0.27 0.18 0.18 0.21 0.15 0.11 0.31 0.32 0.65 0.53 0.53 0.51 0.56 0.65 0.56
0.46 0.54 0.97 1.27 0.65 0.98 0.72 0.76 0.59 0.98 0.74 0.56 0.52 0.48 0.55 0.63 0.57 0.94 0.48 0.18 0.39 0.08 0.06 0.03 0.01 0.01 0.01 0.00 0.00 0.01 0.01 0.01 0.03 0.01 0.01 0.02 0.02 0.01 0.05 0.03 0.08 0.05 0.05 0.08 0.14 0.12 0.14 0.17 0.21 0.20 0.16 0.16 0.25 0.29 0.35 0.36 0.36 0.27 0.26 0.26 0.57 0.33 0.25 0.18 0.34 0.37 0.43 0.49 0.62 0.55 0.60 0.51 0.38 0.36 0.43 0.47 0.49 0.36 0.32 0.31 0.34 0.43 0.35 0.46 0.17 0.36 0.38 0.30 0.48 0.65 1.45 1.22 0.71 0.67 0.54 0.50 0.63
0.10 0.45 0.42 0.70 0.59 0.70 1.09 1.26 0.77 0.70 0.92 0.43 0.40 0.44 0.58 0.12 0.39 0.89 0.98 0.93 0.40 0.12 0.04 0.01 0.00 0.00 0.00 0.00 0.00 0.00 0.00 0.01 0.01 0.02 0.00 0.00 0.01 0.01 0.04 0.02 0.04 0.03 0.04 0.09 0.10 0.10 0.11 0.13 0.13 0.16 0.14 0.18 0.18 0.16 0.24 0.15 0.16 0.27 0.29 0.20 0.23 0.23 0.33 0.19 0.32 0.34 0.43 0.86 0.98 0.38 0.37 0.69 0.64 0.78 0.32 0.24 0.24 0.23 0.25 0.55 0.37 0.28 0.30 0.37 0.39 0.59 0.34 0.33 0.44 0.36 0.77 0.80 1.07 0.68 0.52 0.60 0.48
0.65 0.16 0.10 0.59 0.31 0.87 0.73 1.16 1.03 1.25 0.81 1.03 0.38 0.99 0.72 0.34 0.30 0.21 0.76 1.42 0.69 0.13 0.02 0.00 0.00 0.00 0.00 0.00 0.00 0.01 0.00 0.00 0.00 0.00 0.01 0.00 0.01 0.00 0.01 0.04 0.05 0.02 0.02 0.04 0.04 0.10 0.11 0.17 0.11 0.11 0.16 0.14 0.15 0.15 0.11 0.21 0.35 0.14 0.16 0.35 0.28 0.40 0.22 0.28 0.38 0.72 0.79 0.60 0.59 0.63 0.74 0.86 0.73 0.40 0.42 0.40 0.40 0.56 0.56 0.49 0.29 0.40 0.35 0.41 0.33 0.31 0.27 0.49 0.49 0.63 0.52 0.89 0.68 0.52 0.73 0.83 0.60
0.05 0.11 0.04 0.45 0.40 0.54 0.64 0.54 1.05 1.48 1.07 0.81 0.91 0.71 0.70 0.24 0.67 0.55 1.03 0.35 0.26 0.30 0.03 0.01 0.00 0.00 0.00 0.00 0.00 0.00 0.00 0.00 0.00 0.01 0.00 0.01 0.00 0.00 0.00 0.03 0.01 0.01 0.01 0.02 0.04 0.07 0.09 0.12 0.08 0.09 0.12 0.13 0.13 0.12 0.13 0.17 0.21 0.21 0.15 0.45 0.42 0.21 0.43 0.23 0.50 0.66 0.63 0.89 0.77 0.81 0.79 0.81 0.71 0.61 0.35 0.39 0.55 0.46 0.34 0.57 0.52 0.50 0.46 0.53 0.38 0.28 0.37 0.36 0.43 0.59 0.36 0.91 0.72 0.58 0.36 0.69 0.77
0.16 0.11 0.18 0.11 0.46 0.50 0.53 0.43 0.71 0.84 0.82 0.63 0.64 0.66 0.96 0.84 0.84 0.35 0.52 0.12 0.21 0.16 0.06 0.01 0.00 0.00 0.00 0.00 0.00 0.00 0.00 0.01 0.00 0.00 0.00 0.00 0.01 0.00 0.02 0.00 0.00 0.01 0.00 0.02 0.02 0.04 0.05 0.06 0.12 0.08 0.09 0.08 0.08 0.10 0.10 0.09 0.11 0.23 0.13 0.22 0.29 0.52 0.47 0.56 0.58 0.60 0.60 0.75 0.68 1.17 0.46 0.67 0.46 0.67 0.44 0.24 0.55 1.36 1.41 0.86 0.74 0.57 0.18 0.29 0.48 0.76 0.53 0.51 0.75 0.71 0.81 0.92 0.95 0.66 0.63 0.43 0.20
0.01 0.16 0.10 0.04 0.15 0.32 0.49 0.62 1.20 1.27 0.68 0.86 0.70 0.92 1.15 1.34 0.56 0.81 0.18 0.19 0.12 0.15 0.01 0.01 0.00 0.00 0.00 0.00 0.00 0.00 0.00 0.00 0.00 0.00 0.01 0.00 0.00 0.01 0.01 0.00 0.00 0.00 0.00 0.01 0.01 0.03 0.05 0.04 0.05 0.08 0.06 0.07 0.07 0.09 0.07 0.09 0.06 0.08 0.07 0.08 0.17 0.34 0.48 0.48 0.62 0.66 0.57 0.39 0.76 0.80 0.59 0.68 0.50 0.78 0.30 0.72 0.58 0.97 0.92 0.43 0.40 0.26 0.19 0.31 0.22 0.61 0.38 0.49 0.80 0.70 1.09 0.87 0.66 0.51 0.43 0.42 0.51
0.00 0.12 0.05 0.02 0.04 0.22 0.42 0.51 0.62 1.14 0.98 1.30 0.68 0.34 0.58 0.45 0.33 0.95 0.13 0.04 0.04 0.22 0.07 0.02 0.00 0.00 0.00 0.00 0.00 0.00 0.00 0.00 0.00 0.00 0.00 0.00 0.00 0.00 0.00 0.00 0.00 0.00 0.00 0.01 0.02 0.06 0.06 0.04 0.06 0.05 0.05 0.04 0.05 0.08 0.04 0.06 0.05 0.07 0.07 0.15 0.20 0.45 0.48 0.45 0.53 0.40 0.33 0.38 0.65 0.63 0.69 0.86 0.65 0.41 0.32 0.56 0.96 1.06 0.57 0.32 0.51 0.39 0.22 0.33 0.42 0.32 0.23 0.42 0.66 0.41 0.38 0.38 0.54 0.50 0.38 0.16 0.27
0.03 0.11 0.01 0.05 0.40 0.33 0.36 0.48 0.70 1.35 2.19 1.39 1.67 1.27 0.59 0.41 0.35 0.51 0.07 0.05 0.04 0.08 0.04 0.02 0.00 0.00 0.00 0.00 0.00 0.00 0.00 0.00 0.00 0.00 0.00 0.00 0.00 0.01 0.00 0.01 0.00 0.00 0.00 0.00 0.02 0.01 0.02 0.03 0.07 0.04 0.05 0.05 0.04 0.04 0.03 0.04 0.04 0.05 0.07 0.06 0.11 0.24 0.35 0.34 0.59 0.22 0.15 0.31 0.45 0.41 0.33 0.39 0.76 0.58 0.37 0.80 0.87 0.60 0.49 0.47 0.34 0.28 0.21 0.24 0.29 0.30 0.30 0.14 0.36 0.31 0.32 0.60 0.68 0.42 0.47 0.52 0.38
0.01 0.00 0.08 0.14 0.22 0.41 0.39 0.71 0.89 1.18 1.89 1.29 1.70 1.51 0.95 0.40 1.28 0.37 0.14 0.15 0.07 0.04 0.01 0.00 0.00 0.00 0.00 0.00 0.00 0.00 0.00 0.00 0.00 0.00 0.00 0.00 0.00 0.00 0.00 0.00 0.01 0.00 0.00 0.03 0.00 0.00 0.02 0.01 0.02 0.02 0.03 0.03 0.04 0.04 0.04 0.02 0.04 0.05 0.06 0.09 0.09 0.49 0.08 0.23 0.61 0.21 0.15 0.21 0.26 0.10 0.20 0.32 0.53 0.25 0.36 0.36 0.58 0.16 0.26 0.31 0.24 0.29 0.32 0.36 0.38 0.45 0.29 0.32 0.37 0.39 0.47 0.61 0.58 0.39 0.30 0.37 0.48
0.02 0.00 0.04 0.19 0.40 0.36 0.53 0.87 0.80 1.32 1.49 1.36 1.18 1.26 1.02 1.30 0.59 0.29 0.38 0.07 0.12 0.06 0.02 0.03 0.01 0.00 0.00 0.00 0.00 0.00 0.00 0.00 0.00 0.00 0.00 0.00 0.00 0.00 0.01 0.01 0.00 0.01 0.00 0.02 0.00 0.01 0.01 0.03 0.02 0.04 0.03 0.03 0.02 0.03 0.02 0.02 0.02 0.03 0.07 0.03 0.13 0.16 0.39 0.20 0.10 0.09 0.06 0.08 0.04 0.09 0.09 0.10 0.16 0.17 0.18 0.20 0.17 0.31 0.15 0.25 0.37 0.26 0.43 0.57 0.34 0.85 0.61 0.59 0.41 0.69 0.49 0.60 0.41 0.48 0.45 0.29 0.25
0.00 0.11 0.02 0.02 0.02 0.31 0.33 0.50 0.52 1.37 1.22 1.55 0.82 1.25 0.93 1.24 0.63 0.24 0.16 0.12 0.04 0.08 0.04 0.03 0.03 0.01 0.01 0.00 0.01 0.01 0.00 0.00 0.00 0.00 0.00 0.00 0.00 0.00 0.02 0.00 0.01 0.01 0.00 0.01 0.00 0.00 0.01 0.01 0.01 0.02 0.02 0.03 0.03 0.03 0.02 0.02 0.02 0.11 0.03 0.04 0.35 0.19 0.27 0.32 0.22 0.02 0.03 0.02 0.02 0.12 0.16 0.04 0.13 0.26 0.21 0.22 0.10 0.22 0.18 0.21 0.47 0.29 0.42 0.40 0.30 0.37 0.54 0.40 0.44 0.69 0.93 0.60 0.59 0.26 0.23 0.20 0.20
0.01 0.04 0.21 0.45 0.01 0.25 0.42 0.67 0.50 1.01 0.83 1.15 0.61 0.95 0.75 0.77 0.68 0.50 0.28 0.10 0.05 0.26 0.13 0.10 0.01 0.01 0.01 0.02 0.02 0.03 0.03 0.00 0.00 0.00 0.00 0.00 0.00 0.00 0.01 0.00 0.00 0.00 0.00 0.02 0.02 0.01 0.00 0.04 0.04 0.01 0.01 0.01 0.03 0.01 0.01 0.01 0.03 0.04 0.03 0.05 0.03 0.12 0.09 0.15 0.56 0.10 0.08 0.04 0.05 0.12 0.13 0.08 0.09 0.29 0.24 0.20 0.23 0.24 0.35 0.27 0.54 0.58 0.26 0.26 0.29 0.29 0.30 0.36 0.30 0.37 0.48 0.59 0.34 0.17 0.13 0.08 0.02
0.01 0.00 0.03 0.08 0.06 0.12 0.33 0.57 0.65 0.86 0.45 1.12 1.09 1.36 0.82 1.13 0.68 0.55 0.19 0.37 0.06 0.09 0.19 0.08 0.03 0.01 0.00 0.00 0.03 0.03 0.02 0.02 0.00 0.00 0.00 0.02 0.00 0.00 0.02 0.00 0.00 0.00 0.03 0.02 0.02 0.01 0.01 0.01 0.02 0.01 0.01 0.00 0.03 0.01 0.01 0.01 0.04 0.03 0.03 0.03 0.07 0.28 0.17 0.09 0.06 0.06 0.05 0.07 0.04 0.02 0.11 0.12 0.07 0.19 0.22 0.26 0.25 0.34 0.38 0.33 0.28 0.23 0.37 0.25 0.24 0.26 0.39 0.25 0.36 0.34 0.48 0.53 0.21 0.34 0.09 0.05 0.14
0.00 0.00 0.18 0.11 0.04 0.05 0.20 0.12 0.41 0.72 0.50 0.85 0.53 0.96 0.60 0.41 0.25 0.32 0.34 0.16 0.17 0.03 0.07 0.08 0.04 0.03 0.02 0.02 0.01 0.01 0.05 0.05 0.04 0.02 0.02 0.01 0.01 0.02 0.01 0.02 0.03 0.05 0.00 0.02 0.01 0.00 0.00 0.00 0.00 0.00 0.00 0.01 0.01 0.01 0.01 0.01 0.07 0.02 0.02 0.15 0.04 0.05 0.06 0.05 0.04 0.06 0.05 0.05 0.18 0.27 0.12 0.14 0.14 0.15 0.32 0.44 0.40 0.20 0.16 0.35 0.22 0.18 0.22 0.18 0.25 0.33 0.42 0.28 0.15 0.27 0.51 0.33 0.15 0.16 0.13 0.03 0.01
0.02 0.00 0.03 0.06 0.08 0.02 0.27 0.04 0.09 0.29 0.66 0.64 0.57 0.79 0.91 0.78 0.52 0.61 0.50 0.62 0.20 0.19 0.10 0.06 0.08 0.08 0.03 0.03 0.01 0.04 0.04 0.04 0.05 0.02 0.02 0.01 0.00 0.01 0.01 0.01 0.01 0.00 0.00 0.00 0.00 0.00 0.00 0.00 0.00 0.00 0.00 0.00 0.00 0.00 0.00 0.02 0.02 0.04 0.02 0.13 0.08 0.06 0.09 0.04 0.03 0.08 0.04 0.11 0.15 0.13 0.09 0.13 0.17 0.18 0.16 0.15 0.13 0.19 0.15 0.30 0.26 0.19 0.18 0.18 0.18 0.30 0.33 0.29 0.16 0.17 0.23 0.18 0.08 0.13 0.09 0.03 0.04
0.02 0.06 0.20 0.22 0.18 0.54 0.31 0.03 0.03 0.07 0.26 0.63 0.88 0.72 0.87 0.84 0.70 0.75 0.51 0.40 0.34 0.64 0.15 0.27 0.22 0.37 0.11 0.08 0.04 0.03 0.06 0.06 0.01 0.07 0.02 0.00 0.01 0.01 0.01 0.00 0.00 0.01 0.01 0.00 0.01 0.00 0.00 0.00 0.00 0.00 0.00 0.01 0.00 0.01 0.01 0.01 0.03 0.07 0.03 0.07 0.06 0.09 0.05 0.12 0.05 0.02 0.14 0.30 0.13 0.10 0.08 0.15 0.08 0.09 0.10 0.09 0.09 0.11 0.15 0.26 0.27 0.21 0.21 0.25 0.26 0.45 0.26 0.36 0.25 0.19 0.17 0.19 0.17 0.13 0.11 0.10 0.08
0.00 0.05 0.05 0.11 0.11 0.04 0.27 0.12 0.03 0.16 0.31 0.30 0.90 0.81 0.99 1.07 0.63 1.04 0.46 0.30 0.37 0.41 0.66 0.41 0.22 0.33 0.36 0.31 0.12 0.06 0.07 0.05 0.02 0.03 0.04 0.01 0.01 0.00 0.00 0.00 0.01 0.01 0.00 0.00 0.00 0.00 0.00 0.00 0.00 0.01 0.01 0.01 0.01 0.01 0.02 0.05 0.07 0.05 0.03 0.03 0.08 0.06 0.07 0.08 0.04 0.07 0.14 0.19 0.13 0.06 0.09 0.08 0.10 0.14 0.12 0.08 0.05 0.11 0.24 0.27 0.27 0.15 0.17 0.24 0.19 0.15 0.43 0.27 0.22 0.16 0.17 0.15 0.16 0.08 0.04 0.03 0.02
0.01 0.03 0.05 0.11 0.02 0.04 0.07 0.06 0.17 0.51 0.60 0.86 0.84 0.70 0.94 0.93 0.65 1.02 0.66 0.67 0.47 0.32 0.28 0.71 0.51 0.21 0.17 0.22 0.43 0.25 0.07 0.02 0.03 0.03 0.02 0.05 0.04 0.00 0.00 0.00 0.00 0.00 0.00 0.00 0.00 0.00 0.00 0.01 0.01 0.01 0.02 0.00 0.00 0.02 0.05 0.02 0.03 0.06 0.03 0.05 0.04 0.04 0.09 0.09 0.04 0.05 0.07 0.08 0.06 0.07 0.09 0.12 0.11 0.09 0.13 0.18 0.17 0.22 0.25 0.17 0.10 0.22 0.13 0.26 0.26 0.21 0.32 0.26 0.15 0.18 0.11 0.30 0.20 0.09 0.03 0.02 0.01
0.00 0.02 0.07 0.06 0.21 0.11 0.14 0.42 0.53 0.44 0.29 0.71 0.93 0.70 1.07 0.80 0.83 1.06 0.81 0.49 0.61 0.90 0.57 0.99 0.30 0.41 0.26 0.15 0.17 0.38 0.05 0.05 0.02 0.05 0.06 0.01 0.00 0.01 0.01 0.00 0.00 0.00 0.00 0.00 0.00 0.00 0.00 0.00 0.00 0.00 0.00 0.01 0.02 0.02 0.01 0.03 0.03 0.02 0.01 0.01 0.02 0.01 0.02 0.01 0.03 0.06 0.03 0.02 0.02 0.03 0.07 0.07 0.04 0.07 0.04 0.08 0.13 0.20 0.15 0.15 0.11 0.17 0.14 0.21 0.12 0.26 0.19 0.22 0.31 0.19 0.24 0.13 0.07 0.08 0.02 0.01 0.02
0.01 0.00 0.01 0.09 0.13 0.06 0.09 0.05 0.27 0.48 0.52 0.24 0.33 0.46 0.82 1.03 0.81 0.72 1.15 0.39 0.56 0.51 0.47 0.38 0.73 0.46 0.41 0.21 0.10 0.09 0.06 0.04 0.06 0.02 0.03 0.02 0.04 0.00 0.00 0.00 0.00 0.00 0.00 0.00 0.00 0.00 0.00 0.00 0.00 0.00 0.00 0.02 0.01 0.01 0.03 0.01 0.00 0.00 0.00 0.01 0.02 0.01 0.04 0.01 0.01 0.02 0.06 0.03 0.03 0.02 0.08 0.08 0.06 0.07 0.11 0.15 0.11 0.11 0.07 0.16 0.18 0.17 0.15 0.17 0.20 0.19 0.15 0.22 0.23 0.23 0.24 0.19 0.08 0.06 0.05 0.03 0.05
0.00 0.00 0.01 0.05 0.05 0.01 0.00 0.01 0.16 0.24 0.42 0.12 0.21 0.39 0.80 1.05 0.81 0.57 0.66 0.63 0.28 0.36 0.32 0.23 0.45 0.65 0.63 0.30 0.11 0.06 0.10 0.11 0.08 0.05 0.02 0.01 0.00 0.00 0.00 0.00 0.00 0.00 0.00 0.00 0.00 0.00 0.01 0.00 0.00 0.00 0.00 0.00 0.00 0.00 0.00 0.00 0.02 0.01 0.02 0.02 0.03 0.01 0.01 0.02 0.02 0.04 0.02 0.03 0.03 0.02 0.08 0.07 0.10 0.07 0.09 0.15 0.05 0.04 0.05 0.07 0.09 0.09 0.13 0.14 0.16 0.15 0.22 0.22 0.27 0.23 0.25 0.12 0.20 0.16 0.09 0.05 0.03
0.00 0.00 0.01 0.00 0.02 0.00 0.02 0.00 0.02 0.14 0.41 0.37 0.18 0.21 0.42 0.75 0.70 0.57 0.86 0.64 0.33 0.28 0.20 0.15 0.55 0.68 0.31 0.49 0.27 0.11 0.06 0.03 0.01 0.03 0.03 0.02 0.02 0.01 0.00 0.00 0.00 0.00 0.00 0.00 0.00 0.00 0.00 0.00 0.00 0.00 0.00 0.00 0.00 0.00 0.00 0.00 0.00 0.00 0.03 0.03 0.03 0.02 0.02 0.01 0.01 0.00 0.01 0.02 0.06 0.01 0.06 0.14 0.13 0.09 0.02 0.03 0.07 0.04 0.06 0.06 0.08 0.09 0.14 0.10 0.11 0.20 0.27 0.20 0.19 0.17 0.22 0.19 0.17 0.12 0.07 0.11 0.04
0.00 0.01 0.00 0.00 0.00 0.00 0.03 0.01 0.00 0.06 0.16 0.26 0.14 0.12 0.18 0.69 0.70 0.75 0.87 0.81 0.42 0.25 0.31 0.11 0.22 0.35 0.37 0.25 0.16 0.12 0.11 0.09 0.02 0.01 0.02 0.09 0.04 0.02 0.04 0.00 0.00 0.00 0.00 0.00 0.00 0.00 0.00 0.00 0.00 0.00 0.00 0.00 0.00 0.00 0.00 0.00 0.00 0.01 0.00 0.01 0.02 0.01 0.01 0.00 0.00 0.00 0.00 0.00 0.02 0.01 0.01 0.01 0.01 0.02 0.01 0.02 0.01 0.03 0.03 0.09 0.11 0.04 0.10 0.14 0.11 0.10 0.13 0.18 0.25 0.19 0.15 0.14 0.20 0.21 0.15 0.10 0.04
0.01 0.00 0.00 0.00 0.00 0.01 0.02 0.00 0.00 0.01 0.01 0.09 0.22 0.02 0.29 0.25 0.34 0.66 0.98 1.02 0.72 0.30 0.31 0.39 0.64 0.48 0.22 0.40 0.15 0.12 0.14 0.09 0.03 0.02 0.02 0.01 0.03 0.01 0.00 0.00 0.00 0.00 0.00 0.00 0.00 0.00 0.00 0.00 0.00 0.00 0.00 0.00 0.00 0.00 0.00 0.00 0.00 0.00 0.00 0.00 0.00 0.00 0.00 0.00 0.00 0.00 0.00 0.01 0.03 0.03 0.01 0.01 0.01 0.01 0.02 0.01 0.02 0.04 0.05 0.03 0.07 0.06 0.05 0.08 0.07 0.15 0.11 0.16 0.22 0.13 0.15 0.16 0.23 0.10 0.11 0.07 0.04
0.00 0.00 0.00 0.00 0.00 0.01 0.00 0.00 0.01 0.00 0.00 0.05 0.13 0.10 0.08 0.13 0.38 0.43 0.65 0.64 0.74 0.49 0.34 0.28 0.59 0.59 0.44 0.25 0.21 0.12 0.15 0.21 0.08 0.03 0.01 0.01 0.00 0.01 0.01 0.00 0.00 0.01 0.00 0.00 0.00 0.00 0.00 0.00 0.00 0.00 0.00 0.00 0.00 0.00 0.00 0.00 0.00 0.00 0.00 0.00 0.00 0.00 0.00 0.00 0.00 0.00 0.00 0.00 0.02 0.01 0.01 0.00 0.01 0.02 0.02 0.02 0.03 0.01 0.03 0.04 0.04 0.04 0.06 0.08 0.06 0.12 0.05 0.09 0.10 0.12 0.12 0.14 0.11 0.10 0.08 0.06 0.06
0.00 0.00 0.00 0.00 0.01 0.01 0.00 0.09 0.05 0.29 0.02 0.02 0.02 0.03 0.13 0.06 0.30 0.28 0.49 0.67 0.63 0.44 0.35 0.26 0.29 0.58 0.32 0.23 0.12 0.18 0.17 0.22 0.20 0.04 0.05 0.02 0.02 0.01 0.02 0.02 0.01 0.00 0.00 0.00 0.00 0.00 0.00 0.00 0.00 0.00 0.00 0.00 0.00 0.00 0.00 0.00 0.00 0.00 0.00 0.00 0.00 0.00 0.00 0.00 0.00 0.00 0.00 0.00 0.00 0.01 0.01 0.01 0.01 0.01 0.03 0.02 0.01 0.01 0.02 0.07 0.05 0.05 0.05 0.07 0.03 0.06 0.07 0.06 0.05 0.05 0.07 0.05 0.06 0.11 0.08 0.03 0.05
0.00 0.00 0.00 0.01 0.00 0.09 0.03 0.01 0.03 0.01 0.00 0.00 0.01 0.01 0.02 0.15 0.25 0.40 0.31 0.80 0.60 0.77 0.24 0.31 0.52 0.43 0.13 0.14 0.18 0.24 0.17 0.12 0.29 0.32 0.13 0.08 0.06 0.02 0.00 0.01 0.00 0.01 0.00 0.00 0.00 0.00 0.00 0.00 0.00 0.00 0.00 0.00 0.00 0.00 0.00 0.00 0.00 0.00 0.00 0.00 0.00 0.00 0.00 0.00 0.00 0.00 0.00 0.00 0.00 0.01 0.01 0.02 0.00 0.00 0.00 0.01 0.01 0.00 0.02 0.01 0.02 0.04 0.03 0.02 0.02 0.08 0.03 0.03 0.03 0.02 0.03 0.02 0.03 0.04 0.08 0.05 0.07
0.00 0.00 0.00 0.00 0.07 0.24 0.17 0.22 0.01 0.01 0.00 0.00 0.01 0.00 0.03 0.11 0.13 0.20 0.03 0.08 0.35 0.33 0.27 0.19 0.31 0.28 0.07 0.08 0.15 0.20 0.18 0.18 0.12 0.13 0.38 0.11 0.10 0.17 0.04 0.02 0.01 0.01 0.00 0.00 0.00 0.00 0.00 0.00 0.00 0.00 0.00 0.00 0.00 0.00 0.00 0.00 0.00 0.00 0.00 0.00 0.00 0.00 0.00 0.00 0.00 0.00 0.00 0.00 0.00 0.00 0.01 0.01 0.01 0.01 0.00 0.00 0.00 0.00 0.00 0.00 0.01 0.03 0.05 0.04 0.02 0.02 0.02 0.03 0.02 0.05 0.02 0.02 0.04 0.03 0.03 0.05 0.11
0.00 0.00 0.00 0.00 0.13 0.33 0.10 0.39 0.05 0.00 0.02 0.01 0.01 0.01 0.02 0.07 0.03 0.01 0.02 0.02 0.23 0.40 0.38 0.50 0.21 0.12 0.14 0.13 0.16 0.38 0.45 0.22 0.14 0.08 0.45 0.19 0.08 0.08 0.07 0.03 0.03 0.00 0.00 0.00 0.00 0.00 0.00 0.00 0.00 0.00 0.00 0.00 0.00 0.00 0.00 0.00 0.00 0.00 0.00 0.00 0.00 0.00 0.00 0.00 0.00 0.00 0.00 0.01 0.00 0.00 0.00 0.00 0.00 0.01 0.00 0.00 0.00 0.00 0.00 0.00 0.00 0.01 0.01 0.01 0.01 0.02 0.03 0.01 0.07 0.02 0.03 0.01 0.01 0.02 0.03 0.05 0.04
0.00 0.00 0.00 0.00 0.00 0.01 0.04 0.05 0.01 0.00 0.00 0.00 0.00 0.02 0.03 0.05 0.09 0.07 0.04 0.03 0.11 0.11 0.23 0.20 0.09 0.10 0.25 0.37 0.09 0.40 1.05 1.01 0.29 0.09 0.24 0.08 0.13 0.06 0.08 0.05 0.02 0.01 0.00 0.00 0.00 0.00 0.00 0.01 0.00 0.00 0.00 0.00 0.00 0.00 0.00 0.00 0.00 0.00 0.00 0.00 0.00 0.00 0.00 0.00 0.00 0.00 0.00 0.00 0.00 0.00 0.00 0.01 0.00 0.00 0.00 0.00 0.00 0.00 0.01 0.00 0.00 0.00 0.01 0.01 0.02 0.03 0.03 0.01 0.02 0.03 0.02 0.02 0.02 0.02 0.02 0.02 0.02
0.00 0.00 0.00 0.00 0.00 0.00 0.00 0.00 0.00 0.00 0.01 0.01 0.01 0.00 0.08 0.02 0.16 0.02 0.01 0.06 0.04 0.02 0.07 0.18 0.16 0.22 0.42 0.45 0.71 0.74 1.12 1.56 0.89 0.09 0.09 0.07 0.04 0.06 0.05 0.05 0.02 0.02 0.02 0.00 0.00 0.00 0.00 0.00 0.00 0.00 0.00 0.00 0.00 0.00 0.00 0.00 0.00 0.00 0.00 0.00 0.00 0.00 0.00 0.00 0.00 0.00 0.00 0.00 0.00 0.00 0.00 0.00 0.00 0.00 0.00 0.00 0.00 0.00 0.00 0.00 0.00 0.00 0.00 0.01 0.01 0.02 0.02 0.02 0.02 0.02 0.04 0.02 0.04 0.02 0.01 0.02 0.06
0.00 0.00 0.00 0.00 0.00 0.00 0.00 0.00 0.00 0.00 0.00 0.00 0.02 0.04 0.14 0.11 0.01 0.09 0.00 0.01 0.06 0.18 0.03 0.08 0.14 0.27 0.24 0.30 1.00 0.81 0.42 0.49 1.03 0.85 0.48 0.19 0.10 0.09 0.05 0.07 0.04 0.04 0.01 0.06 0.00 0.00 0.00 0.00 0.01 0.00 0.00 0.00 0.00 0.00 0.00 0.00 0.00 0.00 0.00 0.00 0.00 0.00 0.00 0.00 0.00 0.00 0.00 0.00 0.00 0.00 0.00 0.00 0.00 0.00 0.00 0.00 0.00 0.00 0.00 0.00 0.00 0.00 0.00 0.00 0.01 0.01 0.01 0.01 0.02 0.02 0.02 0.03 0.02 0.05 0.02 0.01 0.03
0.00 0.00 0.00 0.00 0.00 0.00 0.00 0.00 0.00 0.00 0.00 0.03 0.02 0.02 0.15 0.01 0.17 0.81 0.49 0.08 0.02 0.03 0.01 0.02 0.04 0.06 0.10 0.46 0.68 0.67 0.41 0.62 0.77 0.90 0.57 0.27 0.28 0.20 0.13 0.06 0.09 0.04 0.03 0.03 0.01 0.02 0.01 0.00 0.02 0.07 0.07 0.01 0.00 0.00 0.00 0.00 0.00 0.00 0.00 0.00 0.00 0.00 0.00 0.00 0.00 0.00 0.00 0.00 0.00 0.00 0.00 0.00 0.00 0.00 0.00 0.00 0.00 0.00 0.00 0.00 0.00 0.01 0.00 0.00 0.00 0.00 0.01 0.01 0.03 0.02 0.03 0.02 0.01 0.01 0.02 0.02 0.02
0.00 0.00 0.00 0.00 0.00 0.00 0.00 0.00 0.00 0.00 0.01 0.02 0.01 0.03 0.03 0.01 0.17 0.10 0.16 0.09 0.05 0.13 0.04 0.01 0.03 0.04 0.07 0.05 0.12 0.22 0.25 0.59 0.74 0.98 1.00 0.81 0.85 0.89 0.50 0.38 0.18 0.11 0.03 0.08 0.04 0.02 0.01 0.04 0.01 0.03 0.03 0.05 0.04 0.00 0.00 0.00 0.00 0.00 0.00 0.00 0.00 0.00 0.00 0.00 0.00 0.00 0.00 0.00 0.00 0.00 0.00 0.00 0.00 0.00 0.00 0.00 0.00 0.00 0.00 0.00 0.00 0.00 0.00 0.00 0.00 0.01 0.00 0.01 0.03 0.02 0.02 0.04 0.01 0.01 0.02 0.01 0.01
0.00 0.00 0.00 0.01 0.02 0.00 0.00 0.00 0.00 0.00 0.00 0.02 0.05 0.08 0.01 0.03 0.09 0.05 0.06 0.24 0.44 0.56 0.26 0.09 0.04 0.03 0.02 0.02 0.08 0.23 0.19 0.32 0.32 0.42 0.33 0.28 0.31 0.35 0.22 0.68 0.70 0.53 0.45 0.39 0.07 0.03 0.06 0.13 0.06 0.02 0.01 0.09 0.05 0.07 0.01 0.00 0.00 0.00 0.00 0.00 0.00 0.00 0.00 0.00 0.00 0.00 0.00 0.00 0.00 0.00 0.00 0.00 0.00 0.00 0.00 0.00 0.00 0.00 0.00 0.00 0.00 0.00 0.00 0.00 0.00 0.00 0.00 0.01 0.01 0.01 0.01 0.07 0.05 0.02 0.03 0.05 0.04
0.00 0.00 0.00 0.00 0.00 0.00 0.00 0.00 0.03 0.00 0.01 0.00 0.44 0.26 0.23 0.31 0.09 0.08 0.08 0.31 0.33 0.09 0.08 0.06 0.10 0.06 0.01 0.01 0.01 0.02 0.08 0.13 0.17 0.28 0.33 0.41 0.38 0.27 0.65 0.38 0.81 0.99 0.37 0.15 0.15 0.34 0.36 0.30 0.28 0.27 0.30 0.11 0.06 0.11 0.01 0.00 0.00 0.00 0.00 0.00 0.00 0.00 0.00 0.00 0.00 0.00 0.00 0.00 0.00 0.00 0.00 0.00 0.00 0.00 0.00 0.00 0.00 0.00 0.00 0.00 0.00 0.00 0.00 0.00 0.00 0.01 0.00 0.00 0.01 0.00 0.03 0.02 0.02 0.01 0.03 0.02 0.04
0.00 0.01 0.00 0.00 0.00 0.00 0.00 0.00 0.00 0.01 0.01 0.00 0.03 0.08 0.14 0.19 0.77 0.66 0.56 0.57 0.29 0.10 0.03 0.02 0.16 0.25 0.14 0.01 0.00 0.02 0.04 0.03 0.07 0.08 0.11 0.27 0.28 0.21 0.21 0.65 0.57 0.70 0.72 0.34 0.24 0.53 0.35 0.24 0.28 0.25 0.09 0.13 0.15 0.10 0.28 0.08 0.01 0.00 0.00 0.00 0.00 0.00 0.00 0.00 0.00 0.00 0.00 0.00 0.00 0.00 0.00 0.00 0.00 0.00 0.00 0.00 0.00 0.00 0.00 0.00 0.00 0.02 0.02 0.01 0.01 0.02 0.00 0.00 0.01 0.01 0.01 0.01 0.01 0.02 0.02 0.01 0.02
0.00 0.00 0.00 0.00 0.00 0.00 0.00 0.01 0.00 0.00 0.00 0.01 0.03 0.06 0.03 0.02 0.07 0.13 0.46 0.19 0.16 0.06 0.01 0.03 0.30 0.33 0.54 0.27 0.10 0.01 0.01 0.06 0.01 0.02 0.08 0.09 0.21 0.22 0.34 0.40 0.38 0.54 0.56 0.37 0.28 0.21 0.34 0.61 1.09 1.10 1.11 1.09 1.04 0.27 0.12 0.18 0.35 0.04 0.00 0.00 0.00 0.00 0.00 0.00 0.00 0.00 0.00 0.00 0.00 0.00 0.00 0.00 0.00 0.00 0.00 0.00 0.02 0.03 0.04 0.01 0.00 0.00 0.00 0.01 0.02 0.02 0.03 0.01 0.01 0.01 0.02 0.01 0.02 0.02 0.02 0.01 0.01